Location: Im Fang
(46.6019°N, 7.2397°E)
Time: 17:43:31
(UTC+00:00)

Cosmos 1602 - Pass Details

Date: 08 December 2019
Orbit: 515 x 534 km, 82.5° (Epoch: 19 January)

Event Time Altitude Azimuth Distance (km) Brightness Sun altitude
Rises 05:19:27 0° 187° (S) 2,622 7.4 -16.8°
Reaches altitude 10° 05:21:34 10° 187° (S) 1,739 6.5 -16.5°
Maximum altitude 05:25:22 87° 101° (ESE) 523 3.6 -15.8°
Drops below altitude 10° 05:29:14 10° 10° (N) 1,755 6.3 -15.2°
Sets 05:31:22 0° 10° (N) 2,649 7.2 -14.8°
